| time (UTC) | temp F | wind direction | speed MPH | gust MPH | rain 1hr in | rain 24hr in | rain mn in | humidity % | barometer mb |
| 20260901113105 | 78 | 0 | 0.0 | 0.0 | 0.00 | 0.00 | 0.00 | 69 | 1016.5 |
| 20260901112556 | 78 | 0 | 0.0 | 0.0 | 0.00 | 0.00 | 0.00 | 69 | 1016.5 |
| 20260901112056 | 79 | 0 | 0.0 | 2.0 | 0.00 | 0.00 | 0.00 | 68 | 1016.4 |
| 20260901111613 | 79 | 0 | 0.0 | 2.0 | 0.00 | 0.00 | 0.00 | 68 | 1016.2 |
| 20260901111055 | 79 | 205 | 0.0 | 1.0 | 0.00 | 0.00 | 0.00 | 67 | 1016.2 |
| 20260901110556 | 79 | 0 | 0.0 | 1.0 | 0.00 | 0.00 | 0.00 | 67 | 1016.2 |
| 20260901105555 | 80 | 0 | 0.0 | 1.0 | 0.00 | 0.00 | 0.00 | 66 | 1016.1 |
| 20260901105058 | 80 | 0 | 0.0 | 1.0 | 0.00 | 0.00 | 0.00 | 66 | 1016.0 |
| 20260901104602 | 80 | 0 | 0.0 | 2.0 | 0.00 | 0.00 | 0.00 | 66 | 1016.2 |
| 20260901104055 | 80 | 0 | 0.0 | 2.0 | 0.00 | 0.00 | 0.00 | 66 | 1016.1 |
| 20260901103555 | 80 | 0 | 0.0 | 0.0 | 0.00 | 0.00 | 0.00 | 65 | 1016.2 |
| 20260901103127 | 80 | 0 | 0.0 | 0.0 | 0.00 | 0.00 | 0.00 | 65 | 1016.2 |
| 20260901102556 | 80 | 0 | 0.0 | 0.0 | 0.00 | 0.00 | 0.00 | 65 | 1016.2 |
| 20260901102054 | 81 | 0 | 0.0 | 0.0 | 0.00 | 0.00 | 0.00 | 64 | 1016.0 |
| 20260901101603 | 81 | 0 | 0.0 | 0.0 | 0.00 | 0.00 | 0.00 | 64 | 1016.0 |
| 20260901101055 | 81 | 0 | 0.0 | 1.0 | 0.00 | 0.00 | 0.00 | 64 | 1016.1 |
| 20260901100555 | 81 | 0 | 0.0 | 3.0 | 0.00 | 0.00 | 0.00 | 64 | 1016.1 |
| 20260901100107 | 81 | 0 | 0.0 | 3.0 | 0.00 | 0.00 | 0.00 | 64 | 1016.1 |
| 20260901095555 | 81 | 0 | 0.0 | 3.0 | 0.00 | 0.00 | 0.00 | 65 | 1016.1 |
| 20260901095055 | 81 | 0 | 0.0 | 3.0 | 0.00 | 0.00 | 0.00 | 64 | 1016.2 |
| 20260901094600 | 81 | 207 | 0.0 | 2.0 | 0.00 | 0.00 | 0.00 | 64 | 1016.2 |
| 20260901094055 | 81 | 0 | 0.0 | 1.0 | 0.00 | 0.00 | 0.00 | 64 | 1016.2 |
| 20260901093559 | 81 | 0 | 0.0 | 2.0 | 0.00 | 0.00 | 0.00 | 64 | 1016.3 |
| 20260901093129 | 81 | 0 | 0.0 | 2.0 | 0.00 | 0.00 | 0.00 | 64 | 1016.4 |
| 20260901092555 | 82 | 0 | 0.0 | 2.0 | 0.00 | 0.00 | 0.00 | 63 | 1016.3 |
| 20260901092055 | 82 | 0 | 0.0 | 3.0 | 0.00 | 0.00 | 0.00 | 63 | 1016.3 |
| 20260901091608 | 82 | 0 | 0.0 | 3.0 | 0.00 | 0.00 | 0.00 | 62 | 1016.3 |
| 20260901091054 | 82 | 208 | 0.0 | 3.0 | 0.00 | 0.00 | 0.00 | 62 | 1016.3 |
| 20260901090559 | 82 | 0 | 0.0 | 3.0 | 0.00 | 0.00 | 0.00 | 62 | 1016.3 |
| 20260901090108 | 82 | 0 | 0.0 | 3.0 | 0.00 | 0.00 | 0.00 | 61 | 1016.2 |
| 20260901085556 | 82 | 213 | 0.0 | 3.0 | 0.00 | 0.00 | 0.00 | 61 | 1016.2 |
| 20260901085055 | 82 | 214 | 0.0 | 3.0 | 0.00 | 0.00 | 0.00 | 61 | 1016.2 |
| 20260901084605 | 83 | 165 | 0.0 | 3.0 | 0.00 | 0.00 | 0.00 | 61 | 1016.2 |
| 20260901084055 | 83 | 0 | 0.0 | 3.0 | 0.00 | 0.00 | 0.00 | 60 | 1016.2 |
| 20260901083555 | 83 | 121 | 0.0 | 3.0 | 0.00 | 0.00 | 0.00 | 60 | 1016.2 |
| 20260901083106 | 83 | 0 | 0.0 | 3.0 | 0.00 | 0.00 | 0.00 | 60 | 1016.2 |
| 20260901082558 | 83 | 142 | 0.0 | 4.0 | 0.00 | 0.00 | 0.00 | 61 | 1016.0 |
| 20260901082054 | 83 | 0 | 0.0 | 4.0 | 0.00 | 0.00 | 0.00 | 60 | 1016.0 |
| 20260901081616 | 83 | 0 | 0.0 | 4.0 | 0.00 | 0.00 | 0.00 | 60 | 1016.0 |
| 20260901081058 | 83 | 145 | 0.0 | 3.0 | 0.00 | 0.00 | 0.00 | 59 | 1016.0 |
| 20260901080555 | 83 | 88 | 0.0 | 3.0 | 0.00 | 0.00 | 0.00 | 59 | 1015.9 |
| 20260901080106 | 83 | 143 | 0.0 | 3.0 | 0.00 | 0.00 | 0.00 | 59 | 1015.9 |
| 20260901075558 | 83 | 0 | 0.0 | 3.0 | 0.00 | 0.00 | 0.00 | 59 | 1015.9 |
| 20260901075054 | 83 | 128 | 0.0 | 2.0 | 0.00 | 0.00 | 0.00 | 59 | 1015.9 |
| 20260901074603 | 82 | 128 | 0.0 | 3.0 | 0.00 | 0.00 | 0.00 | 59 | 1015.8 |
| 20260901074054 | 82 | 129 | 0.0 | 3.0 | 0.00 | 0.00 | 0.00 | 60 | 1015.8 |
| 20260901073554 | 82 | 144 | 0.0 | 2.0 | 0.00 | 0.00 | 0.00 | 60 | 1015.8 |
| 20260901073104 | 82 | 0 | 0.0 | 2.0 | 0.00 | 0.00 | 0.00 | 60 | 1015.8 |
| 20260901072558 | 82 | 0 | 0.0 | 0.0 | 0.00 | 0.00 | 0.00 | 59 | 1015.9 |
| 20260901072055 | 82 | 0 | 0.0 | 1.0 | 0.00 | 0.00 | 0.00 | 59 | 1015.9 |
| 20260901071607 | 82 | 0 | 0.0 | 1.0 | 0.00 | 0.00 | 0.00 | 59 | 1015.8 |
| 20260901071055 | 82 | 0 | 0.0 | 1.0 | 0.00 | 0.00 | 0.00 | 59 | 1015.8 |
| 20260901070554 | 82 | 0 | 0.0 | 1.0 | 0.00 | 0.00 | 0.00 | 58 | 1015.8 |
| 20260901070107 | 82 | 0 | 0.0 | 1.0 | 0.00 | 0.00 | 0.00 | 58 | 1015.9 |
| 20260901065554 | 82 | 0 | 0.0 | 1.0 | 0.00 | 0.00 | 0.00 | 58 | 1015.8 |
| 20260901065055 | 82 | 0 | 0.0 | 1.0 | 0.00 | 0.00 | 0.00 | 57 | 1015.8 |
| 20260901064608 | 82 | 0 | 0.0 | 1.0 | 0.00 | 0.00 | 0.00 | 57 | 1015.8 |
| 20260901064055 | 83 | 0 | 0.0 | 1.0 | 0.00 | 0.00 | 0.00 | 57 | 1015.8 |
| 20260901063555 | 83 | 0 | 0.0 | 1.0 | 0.00 | 0.00 | 0.00 | 56 | 1015.9 |
| 20260901063101 | 83 | 0 | 0.0 | 1.0 | 0.00 | 0.00 | 0.00 | 55 | 1015.8 |
| 20260901062555 | 83 | 0 | 0.0 | 1.0 | 0.00 | 0.00 | 0.00 | 54 | 1015.7 |
| 20260901062057 | 83 | 0 | 0.0 | 1.0 | 0.00 | 0.00 | 0.00 | 54 | 1015.7 |
| 20260901061604 | 83 | 0 | 0.0 | 2.0 | 0.00 | 0.00 | 0.00 | 54 | 1015.6 |
| 20260901061055 | 83 | 0 | 0.0 | 3.0 | 0.00 | 0.00 | 0.00 | 53 | 1015.6 |
| 20260901060555 | 83 | 0 | 0.0 | 3.0 | 0.00 | 0.00 | 0.00 | 53 | 1015.5 |
| 20260901060105 | 83 | 145 | 0.0 | 1.0 | 0.00 | 0.00 | 0.00 | 52 | 1015.6 |
| 20260901055555 | 83 | 145 | 0.0 | 0.0 | 0.00 | 0.00 | 0.00 | 51 | 1015.4 |
| 20260901055055 | 84 | 0 | 0.0 | 2.0 | 0.00 | 0.00 | 0.00 | 51 | 1015.4 |
| 20260901054602 | 84 | 0 | 0.0 | 2.0 | 0.00 | 0.00 | 0.00 | 51 | 1015.3 |
| 20260901054055 | 84 | 145 | 0.0 | 2.0 | 0.00 | 0.00 | 0.00 | 51 | 1015.3 |
| 20260901053555 | 84 | 0 | 0.0 | 0.0 | 0.00 | 0.00 | 0.00 | 50 | 1015.4 |
| 20260901053123 | 84 | 0 | 0.0 | 1.0 | 0.00 | 0.00 | 0.00 | 50 | 1015.3 |
| 20260901052555 | 84 | 0 | 0.0 | 1.0 | 0.00 | 0.00 | 0.00 | 50 | 1015.2 |
| 20260901052054 | 84 | 0 | 0.0 | 1.0 | 0.00 | 0.00 | 0.00 | 50 | 1015.1 |
| 20260901051605 | 84 | 0 | 0.0 | 0.0 | 0.00 | 0.00 | 0.00 | 49 | 1015.1 |
| 20260901051055 | 84 | 0 | 0.0 | 0.0 | 0.00 | 0.00 | 0.00 | 49 | 1015.1 |
| 20260901050557 | 84 | 0 | 0.0 | 0.0 | 0.00 | 0.00 | 0.00 | 49 | 1015.0 |
| 20260901050105 | 84 | 0 | 0.0 | 0.0 | 0.00 | 0.00 | 0.00 | 48 | 1015.0 |
| 20260901045556 | 84 | 0 | 0.0 | 0.0 | 0.00 | 0.00 | 0.00 | 48 | 1015.0 |
| 20260901045055 | 84 | 0 | 0.0 | 0.0 | 0.00 | 0.00 | 0.00 | 48 | 1014.9 |
| 20260901044602 | 84 | 0 | 0.0 | 0.0 | 0.00 | 0.00 | 0.00 | 48 | 1014.9 |
| 20260901044055 | 85 | 0 | 0.0 | 0.0 | 0.00 | 0.00 | 0.00 | 48 | 1014.9 |
| 20260901043555 | 85 | 0 | 0.0 | 1.0 | 0.00 | 0.00 | 0.00 | 48 | 1014.8 |
| 20260901043121 | 85 | 0 | 0.0 | 1.0 | 0.00 | 0.00 | 0.00 | 47 | 1014.9 |
| 20260901042554 | 85 | 0 | 0.0 | 1.0 | 0.00 | 0.00 | 0.00 | 47 | 1014.9 |
| 20260901042054 | 85 | 0 | 0.0 | 1.0 | 0.00 | 0.00 | 0.00 | 47 | 1014.9 |
| 20260901041612 | 85 | 0 | 0.0 | 1.0 | 0.00 | 0.00 | 0.00 | 47 | 1014.9 |
| 20260901041055 | 85 | 0 | 0.0 | 1.0 | 0.00 | 0.00 | 0.00 | 47 | 1014.9 |
| 20260901040555 | 85 | 0 | 0.0 | 1.0 | 0.00 | 0.00 | 0.00 | 47 | 1014.9 |
| 20260901040106 | 85 | 0 | 0.0 | 1.0 | 0.00 | 0.00 | 0.00 | 47 | 1014.9 |
| 20260901035554 | 85 | 0 | 0.0 | 1.0 | 0.00 | 0.00 | 0.00 | 46 | 1014.9 |
| 20260901035056 | 86 | 0 | 0.0 | 1.0 | 0.00 | 0.00 | 0.00 | 46 | 1015.0 |
| 20260901034607 | 86 | 0 | 0.0 | 1.0 | 0.00 | 0.00 | 0.00 | 46 | 1015.0 |
| 20260901034054 | 86 | 0 | 0.0 | 1.0 | 0.00 | 0.00 | 0.00 | 46 | 1014.9 |
| 20260901033554 | 86 | 0 | 0.0 | 1.0 | 0.00 | 0.00 | 0.00 | 45 | 1014.9 |
| 20260901033109 | 86 | 0 | 0.0 | 1.0 | 0.00 | 0.00 | 0.00 | 45 | 1014.9 |
| 20260901032554 | 86 | 0 | 0.0 | 1.0 | 0.00 | 0.00 | 0.00 | 45 | 1014.9 |
| 20260901032055 | 87 | 0 | 0.0 | 1.0 | 0.00 | 0.00 | 0.00 | 45 | 1014.9 |
| 20260901031605 | 87 | 0 | 0.0 | 1.0 | 0.00 | 0.00 | 0.00 | 44 | 1014.9 |
| 20260901031055 | 87 | 0 | 0.0 | 1.0 | 0.00 | 0.00 | 0.00 | 44 | 1015.0 |
| 20260901030555 | 87 | 0 | 0.0 | 1.0 | 0.00 | 0.00 | 0.00 | 44 | 1014.9 |
| 20260901030104 | 87 | 0 | 0.0 | 1.0 | 0.00 | 0.00 | 0.00 | 44 | 1014.9 |
| 20260901025555 | 88 | 0 | 0.0 | 2.0 | 0.00 | 0.00 | 0.00 | 43 | 1014.9 |
| 20260901025055 | 88 | 0 | 0.0 | 2.0 | 0.00 | 0.00 | 0.00 | 43 | 1014.7 |
| 20260901024608 | 88 | 145 | 0.0 | 2.0 | 0.00 | 0.00 | 0.00 | 43 | 1014.8 |
| 20260901024058 | 89 | 0 | 0.0 | 1.0 | 0.00 | 0.00 | 0.00 | 43 | 1014.7 |
| 20260901023554 | 89 | 0 | 0.0 | 1.0 | 0.00 | 0.00 | 0.00 | 43 | 1014.5 |
| 20260901023105 | 89 | 0 | 0.0 | 1.0 | 0.00 | 0.00 | 0.00 | 42 | 1014.4 |
| 20260901022555 | 89 | 0 | 0.0 | 1.0 | 0.00 | 0.00 | 0.00 | 42 | 1014.4 |
| 20260901022054 | 90 | 0 | 0.0 | 1.0 | 0.00 | 0.00 | 0.00 | 41 | 1014.4 |
| 20260901021609 | 90 | 0 | 0.0 | 1.0 | 0.00 | 0.00 | 0.00 | 41 | 1014.3 |
| 20260901021055 | 90 | 0 | 0.0 | 2.0 | 0.00 | 0.00 | 0.00 | 41 | 1014.2 |
| 20260901020555 | 90 | 0 | 0.0 | 2.0 | 0.00 | 0.00 | 0.00 | 41 | 1014.2 |
| 20260901020059 | 91 | 0 | 0.0 | 2.0 | 0.00 | 0.00 | 0.00 | 41 | 1014.2 |
| 20260901015557 | 91 | 0 | 0.0 | 1.0 | 0.00 | 0.00 | 0.00 | 39 | 1014.1 |
| 20260901015054 | 91 | 145 | 0.0 | 1.0 | 0.00 | 0.00 | 0.00 | 39 | 1014.0 |
| 20260901014606 | 92 | 0 | 0.0 | 1.0 | 0.00 | 0.00 | 0.00 | 39 | 1014.0 |
| 20260901014055 | 92 | 0 | 0.0 | 1.0 | 0.00 | 0.00 | 0.00 | 39 | 1014.0 |
| 20260901013555 | 92 | 0 | 0.0 | 2.0 | 0.00 | 0.00 | 0.00 | 38 | 1013.9 |
| 20260901013103 | 93 | 0 | 0.0 | 2.0 | 0.00 | 0.00 | 0.00 | 38 | 1013.9 |
| 20260901012555 | 93 | 0 | 0.0 | 2.0 | 0.00 | 0.00 | 0.00 | 37 | 1013.9 |
| 20260901012054 | 94 | 0 | 0.0 | 1.0 | 0.00 | 0.00 | 0.00 | 37 | 1013.8 |
| 20260901011603 | 94 | 0 | 0.0 | 1.0 | 0.00 | 0.00 | 0.00 | 36 | 1013.7 |
| 20260901011054 | 94 | 145 | 0.0 | 2.0 | 0.00 | 0.00 | 0.00 | 36 | 1013.8 |
| 20260901010556 | 95 | 0 | 0.0 | 2.0 | 0.00 | 0.00 | 0.00 | 36 | 1013.7 |
| 20260901010103 | 95 | 0 | 0.0 | 2.0 | 0.00 | 0.00 | 0.00 | 35 | 1013.7 |
| 20260901005556 | 96 | 145 | 0.0 | 2.0 | 0.00 | 0.00 | 0.00 | 35 | 1013.8 |
| 20260901005055 | 96 | 0 | 0.0 | 3.0 | 0.00 | 0.00 | 0.00 | 34 | 1013.7 |
| 20260901004605 | 97 | 0 | 0.0 | 6.0 | 0.00 | 0.00 | 0.00 | 34 | 1013.7 |
| 20260901004055 | 97 | 0 | 0.0 | 6.0 | 0.00 | 0.00 | 0.00 | 34 | 1013.7 |
| 20260901003600 | 97 | 167 | 1.0 | 3.0 | 0.00 | 0.00 | 0.00 | 33 | 1013.7 |
| 20260901003105 | 98 | 195 | 0.0 | 4.0 | 0.00 | 0.00 | 0.00 | 33 | 1013.7 |
| 20260901002555 | 98 | 195 | 0.0 | 5.0 | 0.00 | 0.00 | 0.00 | 33 | 1013.8 |
| 20260901002054 | 98 | 167 | 1.0 | 8.0 | 0.00 | 0.00 | 0.00 | 32 | 1013.8 |
| 20260901001608 | 99 | 0 | 1.0 | 8.0 | 0.00 | 0.00 | 0.00 | 32 | 1013.8 |
| 20260901001051 | 99 | 0 | 1.0 | 8.0 | 0.00 | 0.00 | 0.00 | 32 | 1013.8 |
| 20260901000555 | 99 | 0 | 1.0 | 6.0 | 0.00 | 0.00 | 0.00 | 32 | 1013.7 |
| 20260901000109 | 99 | 152 | 1.0 | 5.0 | 0.00 | 0.00 | 0.00 | 32 | 1013.7 |
| 20260831235555 | 100 | 202 | 1.0 | 5.0 | 0.00 | 0.00 | 0.00 | 32 | 1013.6 |
| 20260831235055 | 100 | 170 | 1.0 | 6.0 | 0.00 | 0.00 | 0.00 | 32 | 1013.8 |
| 20260831234604 | 100 | 69 | 1.0 | 6.0 | 0.00 | 0.00 | 0.00 | 32 | 1013.8 |
| 20260831234055 | 100 | 0 | 1.0 | 7.0 | 0.00 | 0.00 | 0.00 | 32 | 1013.7 |
| 20260831233554 | 101 | 333 | 1.0 | 8.0 | 0.00 | 0.00 | 0.00 | 32 | 1013.8 |
| 20260831233108 | 101 | 83 | 2.0 | 8.0 | 0.00 | 0.00 | 0.00 | 32 | 1013.8 |
| 20260831232552 | 101 | 61 | 1.0 | 7.0 | 0.00 | 0.00 | 0.00 | 31 | 1013.6 |
| 20260831232054 | 101 | 29 | 2.0 | 10.0 | 0.00 | 0.00 | 0.00 | 31 | 1013.6 |
| 20260831231610 | 101 | 103 | 2.0 | 11.0 | 0.00 | 0.00 | 0.00 | 31 | 1013.6 |
| 20260831231055 | 102 | 74 | 2.0 | 11.0 | 0.00 | 0.00 | 0.00 | 30 | 1013.6 |
| 20260831230555 | 102 | 223 | 3.0 | 11.0 | 0.00 | 0.00 | 0.00 | 30 | 1013.6 |
| 20260831230109 | 102 | 123 | 3.0 | 11.0 | 0.00 | 0.00 | 0.00 | 30 | 1013.7 |
| 20260831225555 | 102 | 182 | 3.0 | 7.0 | 0.00 | 0.00 | 0.00 | 30 | 1013.8 |
| 20260831225054 | 103 | 106 | 2.0 | 10.0 | 0.00 | 0.00 | 0.00 | 30 | 1013.8 |
| 20260831224606 | 103 | 159 | 2.0 | 10.0 | 0.00 | 0.00 | 0.00 | 30 | 1013.8 |
| 20260831224054 | 103 | 114 | 3.0 | 9.0 | 0.00 | 0.00 | 0.00 | 30 | 1013.8 |
| 20260831223555 | 103 | 98 | 3.0 | 9.0 | 0.00 | 0.00 | 0.00 | 30 | 1013.9 |
| 20260831223111 | 103 | 136 | 2.0 | 9.0 | 0.00 | 0.00 | 0.00 | 29 | 1013.8 |
| 20260831222555 | 104 | 147 | 2.0 | 9.0 | 0.00 | 0.00 | 0.00 | 29 | 1013.8 |
| 20260831222055 | 104 | 82 | 3.0 | 9.0 | 0.00 | 0.00 | 0.00 | 29 | 1013.8 |
| 20260831221609 | 104 | 193 | 3.0 | 9.0 | 0.00 | 0.00 | 0.00 | 29 | 1013.9 |
| 20260831221055 | 104 | 234 | 2.0 | 9.0 | 0.00 | 0.00 | 0.00 | 29 | 1014.0 |
| 20260831220555 | 105 | 63 | 2.0 | 7.0 | 0.00 | 0.00 | 0.00 | 29 | 1014.0 |
| 20260831220126 | 105 | 140 | 2.0 | 6.0 | 0.00 | 0.00 | 0.00 | 29 | 1014.0 |
| 20260831215558 | 105 | 136 | 2.0 | 8.0 | 0.00 | 0.00 | 0.00 | 29 | 1014.2 |
| 20260831215055 | 105 | 184 | 2.0 | 8.0 | 0.00 | 0.00 | 0.00 | 28 | 1014.2 |
| 20260831214606 | 105 | 187 | 3.0 | 9.0 | 0.00 | 0.00 | 0.00 | 28 | 1014.2 |
| 20260831214054 | 104 | 0 | 2.0 | 9.0 | 0.00 | 0.00 | 0.00 | 31 | 1014.2 |
| 20260831213555 | 104 | 107 | 3.0 | 8.0 | 0.00 | 0.00 | 0.00 | 30 | 1014.2 |
| 20260831213113 | 103 | 187 | 3.0 | 8.0 | 0.00 | 0.00 | 0.00 | 29 | 1014.3 |
| 20260831212555 | 103 | 5 | 2.0 | 8.0 | 0.00 | 0.00 | 0.00 | 30 | 1014.4 |
| 20260831212054 | 104 | 214 | 2.0 | 7.0 | 0.00 | 0.00 | 0.00 | 29 | 1014.5 |
| 20260831211604 | 105 | 164 | 2.0 | 7.0 | 0.00 | 0.00 | 0.00 | 28 | 1014.5 |
| 20260831211054 | 105 | 150 | 2.0 | 8.0 | 0.00 | 0.00 | 0.00 | 30 | 1014.6 |
| 20260831210554 | 105 | 69 | 2.0 | 8.0 | 0.00 | 0.00 | 0.00 | 30 | 1014.6 |
| 20260831210100 | 105 | 123 | 2.0 | 10.0 | 0.00 | 0.00 | 0.00 | 29 | 1014.7 |
| 20260831205555 | 106 | 163 | 3.0 | 10.0 | 0.00 | 0.00 | 0.00 | 28 | 1014.6 |
| 20260831205055 | 105 | 217 | 1.0 | 7.0 | 0.00 | 0.00 | 0.00 | 29 | 1014.6 |
| 20260831204605 | 105 | 88 | 1.0 | 7.0 | 0.00 | 0.00 | 0.00 | 29 | 1014.9 |
| 20260831204055 | 106 | 111 | 2.0 | 11.0 | 0.00 | 0.00 | 0.00 | 28 | 1014.9 |
| 20260831203556 | 106 | 102 | 2.0 | 14.0 | 0.00 | 0.00 | 0.00 | 28 | 1015.0 |
| 20260831203134 | 106 | 201 | 4.0 | 14.0 | 0.00 | 0.00 | 0.00 | 26 | 1015.0 |
| 20260831202556 | 106 | 159 | 2.0 | 7.0 | 0.00 | 0.00 | 0.00 | 27 | 1015.1 |
| 20260831202057 | 106 | 225 | 2.0 | 9.0 | 0.00 | 0.00 | 0.00 | 27 | 1015.1 |
| 20260831201606 | 106 | 311 | 3.0 | 9.0 | 0.00 | 0.00 | 0.00 | 27 | 1015.2 |
| 20260831201054 | 106 | 0 | 3.0 | 9.0 | 0.00 | 0.00 | 0.00 | 27 | 1015.2 |
| 20260831200601 | 105 | 183 | 2.0 | 9.0 | 0.00 | 0.00 | 0.00 | 28 | 1015.2 |
| 20260831200107 | 105 | 259 | 1.0 | 8.0 | 0.00 | 0.00 | 0.00 | 30 | 1015.3 |
| 20260831195559 | 104 | 101 | 2.0 | 9.0 | 0.00 | 0.00 | 0.00 | 30 | 1015.4 |
| 20260831195055 | 104 | 101 | 2.0 | 9.0 | 0.00 | 0.00 | 0.00 | 30 | 1015.4 |
| 20260831194614 | 104 | 92 | 2.0 | 9.0 | 0.00 | 0.00 | 0.00 | 30 | 1015.6 |
| 20260831194057 | 104 | 67 | 3.0 | 11.0 | 0.00 | 0.00 | 0.00 | 31 | 1015.5 |
| 20260831193555 | 103 | 205 | 3.0 | 12.0 | 0.00 | 0.00 | 0.00 | 31 | 1015.6 |
| 20260831193102 | 102 | 193 | 3.0 | 12.0 | 0.00 | 0.00 | 0.00 | 32 | 1015.7 |
| 20260831192554 | 101 | 144 | 2.0 | 12.0 | 0.00 | 0.00 | 0.00 | 32 | 1015.8 |
| 20260831192055 | 100 | 201 | 3.0 | 12.0 | 0.00 | 0.00 | 0.00 | 32 | 1015.8 |
| 20260831191608 | 101 | 118 | 2.0 | 6.0 | 0.00 | 0.00 | 0.00 | 33 | 1015.8 |
| 20260831191055 | 101 | 70 | 1.0 | 9.0 | 0.00 | 0.00 | 0.00 | 34 | 1015.8 |
| 20260831190555 | 103 | 76 | 3.0 | 9.0 | 0.00 | 0.00 | 0.00 | 34 | 1015.9 |
| 20260831190139 | 103 | 154 | 1.0 | 8.0 | 0.00 | 0.00 | 0.00 | 33 | 1016.0 |
| 20260831185556 | 104 | 127 | 2.0 | 8.0 | 0.00 | 0.00 | 0.00 | 33 | 1016.0 |
| 20260831185101 | 104 | 136 | 2.0 | 11.0 | 0.00 | 0.00 | 0.00 | 33 | 1015.9 |
| 20260831184610 | 104 | 178 | 3.0 | 11.0 | 0.00 | 0.00 | 0.00 | 33 | 1016.1 |
| 20260831184056 | 104 | 205 | 3.0 | 10.0 | 0.00 | 0.00 | 0.00 | 33 | 1016.1 |
| 20260831183558 | 103 | 88 | 2.0 | 10.0 | 0.00 | 0.00 | 0.00 | 33 | 1016.1 |
| 20260831183105 | 104 | 121 | 3.0 | 10.0 | 0.00 | 0.00 | 0.00 | 33 | 1016.2 |
| 20260831182559 | 103 | 238 | 1.0 | 9.0 | 0.00 | 0.00 | 0.00 | 32 | 1016.3 |
| 20260831182058 | 103 | 161 | 2.0 | 11.0 | 0.00 | 0.00 | 0.00 | 33 | 1016.5 |
| 20260831181606 | 103 | 178 | 2.0 | 11.0 | 0.00 | 0.00 | 0.00 | 33 | 1016.5 |
| 20260831181055 | 103 | 92 | 2.0 | 7.0 | 0.00 | 0.00 | 0.00 | 33 | 1016.5 |
| 20260831180555 | 103 | 141 | 2.0 | 8.0 | 0.00 | 0.00 | 0.00 | 34 | 1016.7 |
| 20260831180120 | 102 | 103 | 2.0 | 9.0 | 0.00 | 0.00 | 0.00 | 35 | 1016.8 |
| 20260831175558 | 102 | 160 | 2.0 | 9.0 | 0.00 | 0.00 | 0.00 | 35 | 1016.8 |
| 20260831175055 | 102 | 171 | 3.0 | 10.0 | 0.00 | 0.00 | 0.00 | 34 | 1016.9 |
| 20260831174602 | 102 | 91 | 4.0 | 10.0 | 0.00 | 0.00 | 0.00 | 34 | 1017.0 |
| 20260831174055 | 101 | 196 | 2.0 | 11.0 | 0.00 | 0.00 | 0.00 | 35 | 1017.0 |
| 20260831173557 | 101 | 188 | 3.0 | 11.0 | 0.00 | 0.00 | 0.00 | 35 | 1017.1 |
| 20260831173115 | 101 | 223 | 2.0 | 12.0 | 0.00 | 0.00 | 0.00 | 35 | 1017.2 |
| 20260831172558 | 101 | 196 | 3.0 | 12.0 | 0.00 | 0.00 | 0.00 | 34 | 1017.2 |
| 20260831172055 | 101 | 166 | 3.0 | 11.0 | 0.00 | 0.00 | 0.00 | 35 | 1017.2 |
| 20260831171607 | 101 | 171 | 2.0 | 9.0 | 0.00 | 0.00 | 0.00 | 37 | 1017.3 |
| 20260831171055 | 100 | 202 | 1.0 | 12.0 | 0.00 | 0.00 | 0.00 | 36 | 1017.4 |
| 20260831170555 | 100 | 171 | 4.0 | 12.0 | 0.00 | 0.00 | 0.00 | 36 | 1017.4 |
| 20260831165554 | 100 | 215 | 2.0 | 11.0 | 0.00 | 0.00 | 0.00 | 36 | 1017.4 |
| 20260831165054 | 99 | 234 | 4.0 | 13.0 | 0.00 | 0.00 | 0.00 | 37 | 1017.4 |
| 20260831164604 | 100 | 286 | 2.0 | 13.0 | 0.00 | 0.00 | 0.00 | 37 | 1017.5 |
| 20260831164056 | 99 | 211 | 2.0 | 11.0 | 0.00 | 0.00 | 0.00 | 36 | 1017.4 |
| 20260831163555 | 99 | 217 | 3.0 | 12.0 | 0.00 | 0.00 | 0.00 | 38 | 1017.5 |
| 20260831163102 | 99 | 188 | 3.0 | 14.0 | 0.00 | 0.00 | 0.00 | 38 | 1017.4 |
| 20260831162557 | 98 | 234 | 5.0 | 14.0 | 0.00 | 0.00 | 0.00 | 38 | 1017.5 |
| 20260831162054 | 98 | 169 | 2.0 | 11.0 | 0.00 | 0.00 | 0.00 | 39 | 1017.5 |
| 20260831161608 | 98 | 207 | 3.0 | 12.0 | 0.00 | 0.00 | 0.00 | 38 | 1017.7 |
| 20260831161055 | 97 | 196 | 2.0 | 12.0 | 0.00 | 0.00 | 0.00 | 39 | 1017.6 |
| 20260831160555 | 97 | 201 | 5.0 | 12.0 | 0.00 | 0.00 | 0.00 | 39 | 1017.6 |
| 20260831160128 | 97 | 0 | 4.0 | 12.0 | 0.00 | 0.00 | 0.00 | 40 | 1017.5 |
| 20260831155554 | 96 | 185 | 3.0 | 11.0 | 0.00 | 0.00 | 0.00 | 40 | 1017.4 |
| 20260831155056 | 96 | 180 | 3.0 | 11.0 | 0.00 | 0.00 | 0.00 | 39 | 1017.6 |
| 20260831154634 | 95 | 210 | 3.0 | 10.0 | 0.00 | 0.00 | 0.00 | 40 | 1017.6 |
| 20260831154058 | 95 | 221 | 3.0 | 14.0 | 0.00 | 0.00 | 0.00 | 40 | 1017.5 |
| 20260831153555 | 95 | 261 | 4.0 | 14.0 | 0.00 | 0.00 | 0.00 | 40 | 1017.5 |
| 20260831153133 | 95 | 225 | 3.0 | 12.0 | 0.00 | 0.00 | 0.00 | 40 | 1017.5 |
| 20260831152556 | 94 | 0 | 4.0 | 12.0 | 0.00 | 0.00 | 0.00 | 42 | 1017.4 |
| 20260831152056 | 94 | 207 | 3.0 | 10.0 | 0.00 | 0.00 | 0.00 | 41 | 1017.4 |
| 20260831151611 | 94 | 255 | 2.0 | 10.0 | 0.00 | 0.00 | 0.00 | 46 | 1017.4 |
| 20260831151056 | 93 | 191 | 4.0 | 10.0 | 0.00 | 0.00 | 0.00 | 45 | 1017.5 |
| 20260831150555 | 93 | 230 | 3.0 | 10.0 | 0.00 | 0.00 | 0.00 | 46 | 1017.5 |
| 20260831150107 | 92 | 171 | 1.0 | 11.0 | 0.00 | 0.00 | 0.00 | 46 | 1017.4 |
| 20260831145555 | 92 | 207 | 2.0 | 11.0 | 0.00 | 0.00 | 0.00 | 48 | 1017.5 |
| 20260831145055 | 91 | 173 | 3.0 | 9.0 | 0.00 | 0.00 | 0.00 | 48 | 1017.4 |
| 20260831144608 | 91 | 182 | 4.0 | 9.0 | 0.00 | 0.00 | 0.00 | 50 | 1017.4 |
| 20260831144055 | 91 | 186 | 2.0 | 9.0 | 0.00 | 0.00 | 0.00 | 52 | 1017.4 |
| 20260831143555 | 90 | 200 | 2.0 | 10.0 | 0.00 | 0.00 | 0.00 | 52 | 1017.4 |
| 20260831143115 | 90 | 216 | 3.0 | 10.0 | 0.00 | 0.00 | 0.00 | 53 | 1017.5 |
| 20260831142556 | 89 | 0 | 2.0 | 7.0 | 0.00 | 0.00 | 0.00 | 55 | 1017.5 |
| 20260831142054 | 89 | 209 | 1.0 | 9.0 | 0.00 | 0.00 | 0.00 | 56 | 1017.4 |
| 20260831141601 | 88 | 0 | 3.0 | 10.0 | 0.00 | 0.00 | 0.00 | 56 | 1017.4 |
| 20260831141054 | 88 | 247 | 2.0 | 10.0 | 0.00 | 0.00 | 0.00 | 58 | 1017.3 |
| 20260831140554 | 87 | 206 | 3.0 | 10.0 | 0.00 | 0.00 | 0.00 | 59 | 1017.4 |
| 20260831140106 | 86 | 208 | 3.0 | 9.0 | 0.00 | 0.00 | 0.00 | 60 | 1017.3 |
| 20260831135556 | 86 | 180 | 1.0 | 5.0 | 0.00 | 0.00 | 0.00 | 62 | 1017.3 |
| 20260831135057 | 85 | 184 | 1.0 | 4.0 | 0.00 | 0.00 | 0.00 | 63 | 1017.1 |
| 20260831134611 | 85 | 0 | 1.0 | 5.0 | 0.00 | 0.00 | 0.00 | 64 | 1017.1 |
| 20260831134056 | 84 | 188 | 2.0 | 6.0 | 0.00 | 0.00 | 0.00 | 64 | 1017.0 |
| 20260831133600 | 84 | 198 | 1.0 | 6.0 | 0.00 | 0.00 | 0.00 | 65 | 1017.1 |
| 20260831133106 | 83 | 145 | 2.0 | 5.0 | 0.00 | 0.00 | 0.00 | 66 | 1017.0 |
| 20260831132555 | 82 | 188 | 1.0 | 3.0 | 0.00 | 0.00 | 0.00 | 68 | 1016.9 |
| 20260831132055 | 82 | 188 | 0.0 | 3.0 | 0.00 | 0.00 | 0.00 | 68 | 1016.8 |
| 20260831131605 | 81 | 185 | 0.0 | 3.0 | 0.00 | 0.00 | 0.00 | 69 | 1016.8 |
| 20260831131054 | 81 | 0 | 0.0 | 2.0 | 0.00 | 0.00 | 0.00 | 70 | 1016.7 |
| 20260831130554 | 80 | 188 | 0.0 | 2.0 | 0.00 | 0.00 | 0.00 | 70 | 1016.6 |
| 20260831130135 | 80 | 0 | 0.0 | 2.0 | 0.00 | 0.00 | 0.00 | 71 | 1016.5 |
| 20260831125555 | 80 | 0 | 0.0 | 2.0 | 0.00 | 0.00 | 0.00 | 71 | 1016.4 |
| 20260831125056 | 79 | 0 | 0.0 | 2.0 | 0.00 | 0.00 | 0.00 | 71 | 1016.3 |
| 20260831124603 | 79 | 0 | 0.0 | 0.0 | 0.00 | 0.00 | 0.00 | 71 | 1016.2 |
| 20260831124055 | 79 | 0 | 0.0 | 0.0 | 0.00 | 0.00 | 0.00 | 71 | 1016.1 |
| 20260831123554 | 79 | 0 | 0.0 | 0.0 | 0.00 | 0.00 | 0.00 | 70 | 1016.1 |
| 20260831123109 | 79 | 0 | 0.0 | 0.0 | 0.00 | 0.00 | 0.00 | 70 | 1016.1 |
| 20260831122555 | 79 | 0 | 0.0 | 1.0 | 0.00 | 0.00 | 0.00 | 70 | 1016.0 |
| 20260831122055 | 79 | 0 | 0.0 | 2.0 | 0.00 | 0.00 | 0.00 | 70 | 1016.0 |
| 20260831121604 | 79 | 0 | 0.0 | 3.0 | 0.00 | 0.00 | 0.00 | 70 | 1015.9 |
| 20260831121055 | 79 | 192 | 0.0 | 3.0 | 0.00 | 0.00 | 0.00 | 69 | 1015.8 |
| 20260831120556 | 79 | 0 | 0.0 | 2.0 | 0.00 | 0.00 | 0.00 | 69 | 1015.7 |
| 20260831120147 | 79 | 0 | 0.0 | 3.0 | 0.00 | 0.00 | 0.00 | 69 | 1015.8 |
| 20260831115555 | 79 | 0 | 0.0 | 3.0 | 0.00 | 0.00 | 0.00 | 69 | 1015.6 |
| 20260831115055 | 79 | 0 | 1.0 | 3.0 | 0.00 | 0.00 | 0.00 | 68 | 1015.6 |
| 20260831114610 | 80 | 0 | 0.0 | 2.0 | 0.00 | 0.00 | 0.00 | 68 | 1015.5 |
| 20260831114055 | 80 | 0 | 0.0 | 3.0 | 0.00 | 0.00 | 0.00 | 68 | 1015.5 |
| 20260831113555 | 80 | 0 | 0.0 | 3.0 | 0.00 | 0.00 | 0.00 | 68 | 1015.4 |